Location: Krakow
(50.0212°N, 19.9423°E)
Time: 23:02:38
(UTC+02:00)

NOAA 18 - Pass Details

Date: 18 August 2024
Orbit: 837 x 859 km, 98.9° (Epoch: 19 September)

Event Time Altitude Azimuth Distance (km) Brightness Sun altitude
Exits shadow 21:15:07 14° 103° (ESE) 2,220 6.8 -12.4°
Maximum altitude 21:18:34 25° 58° (ENE) 1,679 6.6 -12.9°
Drops below altitude 10° 21:22:58 10° 5° (N) 2,507 8.1 -13.4°
Sets 21:25:44 0° 353° (N) 3,447 9.2 -13.7°
